Location: *
(46.1866°S, 178.5290°W)
Time: 16:58:00
(UTC+00:00)

Cosmos 1461 - Visible Passes

Search period start: 26 September 2021 00:00
Search period end: 06 October 2021 00:00
Orbit: 518 x 644 km, 65.0° (Epoch: 25 September)

Date Brightness Start Highest point End Pass type
(mag) Time Alt. Az. Time Alt. Az. Time Alt. Az.
26 Sep 6.0 15:36:34 10° S 15:38:50 13° SSE 15:41:07 10° ESE visible
27 Sep 5.9 15:41:19 10° S 15:44:20 17° SSE 15:47:24 10° ESE visible
28 Sep 5.6 15:46:11 10° SSW 15:49:47 22° SE 15:53:26 10° E visible
29 Sep 5.2 15:51:07 10° SSW 15:55:10 29° SE 15:59:16 10° ENE visible
30 Sep 6.2 14:18:35 10° S 14:20:13 12° SSE 14:21:52 10° SE visible
30 Sep 4.5 15:56:07 10° SSW 16:00:30 40° SE 16:04:55 10° ENE visible
01 Oct 4.1 07:39:54 10° N 07:42:01 25° NNE 07:42:01 25° NNE visible
01 Oct 5.7 09:26:17 12° SSE 09:26:17 12° SSE 09:26:45 10° SSE visible
01 Oct 6.1 14:23:11 10° S 14:25:45 15° SSE 14:28:21 10° ESE visible
01 Oct 3.8 16:01:10 10° SSW 16:05:45 59° SE 16:10:23 10° NE visible
02 Oct 2.9 07:44:40 10° NNW 07:48:44 57° ENE 07:53:02 10° SE visible
02 Oct 5.3 09:24:42 10° W 09:28:09 23° SW 09:31:43 10° SSE visible
02 Oct 5.8 14:27:58 10° S 14:31:14 19° SE 14:34:31 10° E visible
02 Oct 3.2 16:06:17 10° SW 16:10:57 86° SE 16:15:39 10° NE visible
03 Oct 2.8 07:49:40 10° NW 07:53:50 90° N 07:58:15 10° SE visible
03 Oct 5.7 09:30:38 10° WSW 09:33:34 18° SSW 09:36:36 10° S visible
03 Oct 5.4 14:32:52 10° SSW 14:36:39 24° SE 14:40:28 10° E visible
03 Oct 3.1 16:11:29 10° SW 16:16:06 63° WNW 16:20:43 10° NNE visible
04 Oct 3.5 07:54:53 10° NW 07:59:01 59° SW 08:03:23 10° SSE visible
04 Oct 6.1 09:36:47 10° WSW 09:39:03 14° SSW 09:41:22 10° S visible
04 Oct 6.4 13:01:00 10° SSE 13:01:33 10° SSE 13:02:06 10° SSE visible
04 Oct 4.9 14:37:48 10° SSW 14:42:00 33° SE 14:46:14 10° ENE visible
04 Oct 3.5 16:16:48 10° SW 16:21:10 41° WNW 16:25:33 10° N visible
05 Oct 4.4 08:00:18 10° WNW 08:04:17 39° SW 08:08:27 10° SSE visible
05 Oct 6.3 09:43:19 10° SW 09:44:35 11° SSW 09:45:52 10° S visible
05 Oct 6.2 13:05:05 10° S 13:07:07 13° SSE 13:09:10 10° SE visible
05 Oct 4.2 14:42:49 10° SSW 14:47:18 46° SE 14:51:49 10° ENE visible
05 Oct 4.1 16:22:15 10° WSW 16:26:11 27° WNW 16:30:06 10° N visible
